TPC802 NZQN-NZCH

Flight info

Callsign TPC802
Flight time 1h 13m
Altitude 11000
Route QN Q787 TIMJO Y153 DOPKI
Aircraft KODI/L-SDFGR/C

Departure

Time 2026-05-06 15:10
Airport Queenstown Airport (NZQN)

Arrival

Time 2026-05-06 16:24
Airport Christchurch International Airport (NZCH)
Time Latitude Longitude Altitude Speed Heading
2026-05-06 14:52 -45.02492 168.73869 1170 ft 0 kts 147°
2026-05-06 15:06 -45.02494 168.73870 1168 ft 1 kts 160°
2026-05-06 15:06 -45.02479 168.73864 1168 ft 8 kts 44°
2026-05-06 15:06 -45.02418 168.73922 1170 ft 13 kts 33°
2026-05-06 15:07 -45.02370 168.74036 1170 ft 16 kts 78°
2026-05-06 15:07 -45.02344 168.74194 1168 ft 14 kts 78°
2026-05-06 15:07 -45.02300 168.74221 1170 ft 9 kts 356°
2026-05-06 15:07 -45.02234 168.74198 1169 ft 11 kts 346°
2026-05-06 15:08 -45.02150 168.74173 1169 ft 14 kts 348°
2026-05-06 15:08 -45.02096 168.74066 1170 ft 14 kts 305°
2026-05-06 15:08 -45.02029 168.74008 1170 ft 9 kts 356°
2026-05-06 15:08 -45.02014 168.74013 1170 ft 0 kts 24°
2026-05-06 15:09 -45.01968 168.74038 1168 ft 14 kts 20°
2026-05-06 15:09 -45.01916 168.74103 1170 ft 0 kts 75°
2026-05-06 15:09 -45.01905 168.74176 1170 ft 31 kts 77°
2026-05-06 15:10 -45.01820 168.74720 1171 ft 80 kts 77°
2026-05-06 15:10 -45.01684 168.75587 1298 ft 94 kts 78°
2026-05-06 15:10 -45.01525 168.76434 1632 ft 86 kts 75°
2026-05-06 15:10 -45.01352 168.77311 1887 ft 98 kts 75°
2026-05-06 15:11 -45.01191 168.78271 2209 ft 103 kts 83°
2026-05-06 15:11 -45.01087 168.79275 2543 ft 103 kts 83°
2026-05-06 15:11 -45.00977 168.80278 2896 ft 104 kts 82°
2026-05-06 15:11 -45.00882 168.81306 3251 ft 107 kts 85°
2026-05-06 15:12 -45.00720 168.82323 3639 ft 109 kts 58°
2026-05-06 15:12 -45.00137 168.83017 4016 ft 109 kts 23°
2026-05-06 15:12 -44.99478 168.83067 4616 ft 89 kts 340°
2026-05-06 15:12 -44.98953 168.82460 4787 ft 114 kts 319°
2026-05-06 15:13 -44.98348 168.81622 5048 ft 122 kts 327°
2026-05-06 15:13 -44.97787 168.80853 5656 ft 100 kts 316°
2026-05-06 15:13 -44.97610 168.79932 6072 ft 115 kts 264°
2026-05-06 15:13 -44.98148 168.78952 6385 ft 138 kts 225°
2026-05-06 15:14 -44.98724 168.78551 6650 ft 140 kts 206°
2026-05-06 15:14 -44.99692 168.78329 6982 ft 142 kts 183°
2026-05-06 15:14 -45.00633 168.78710 7328 ft 143 kts 140°
2026-05-06 15:14 -45.01121 168.79870 7457 ft 144 kts 86°
2026-05-06 15:15 -45.00902 168.81262 7503 ft 144 kts 57°
2026-05-06 15:15 -45.00487 168.82361 8169 ft 107 kts 47°
2026-05-06 15:15 -45.00065 168.82981 8599 ft 83 kts
2026-05-06 15:15 -44.99450 168.82463 7963 ft 141 kts 315°
2026-05-06 15:16 -44.98937 168.81215 8056 ft 136 kts 317°
2026-05-06 15:16 -44.98308 168.80658 8720 ft 101 kts
2026-05-06 15:16 -44.97621 168.81280 8724 ft 126 kts 26°
2026-05-06 15:16 -44.96898 168.81952 8964 ft 124 kts 28°
2026-05-06 15:17 -44.96243 168.82760 9234 ft 125 kts 34°
2026-05-06 15:17 -44.95694 168.83739 9504 ft 129 kts 43°
2026-05-06 15:17 -44.95137 168.84680 9726 ft 122 kts 33°
2026-05-06 15:17 -44.94562 168.85544 9968 ft 116 kts 24°
2026-05-06 15:18 -44.93919 168.86192 10212 ft 111 kts 18°
2026-05-06 15:18 -44.93276 168.86787 10431 ft 108 kts 10°
2026-05-06 15:18 -44.92571 168.87164 10637 ft 114 kts 16°
2026-05-06 15:18 -44.92015 168.88105 10838 ft 137 kts 45°
2026-05-06 15:19 -44.91531 168.89250 11000 ft 139 kts 36°
2026-05-06 15:19 -44.90902 168.90383 10996 ft 157 kts 38°
2026-05-06 15:19 -44.90259 168.91632 11004 ft 166 kts 40°
2026-05-06 15:19 -44.89567 168.93020 11006 ft 169 kts 41°
2026-05-06 15:20 -44.88855 168.94383 11003 ft 174 kts 40°
2026-05-06 15:20 -44.88131 168.95736 10994 ft 171 kts 39°
2026-05-06 15:20 -44.87422 168.97044 10990 ft 164 kts 38°
2026-05-06 15:20 -44.86720 168.98315 10988 ft 164 kts 38°
2026-05-06 15:21 -44.86023 168.99585 10997 ft 164 kts 38°
2026-05-06 15:21 -44.85325 169.00855 10987 ft 163 kts 38°
2026-05-06 15:21 -44.84630 169.02123 10983 ft 163 kts 39°
2026-05-06 15:21 -44.83937 169.03390 10982 ft 164 kts 38°
2026-05-06 15:22 -44.83235 169.04666 10980 ft 165 kts 38°
2026-05-06 15:22 -44.82547 169.05930 10985 ft 159 kts 37°
2026-05-06 15:22 -44.81863 169.07159 10996 ft 160 kts 37°
2026-05-06 15:22 -44.81170 169.08409 10996 ft 163 kts 38°
2026-05-06 15:23 -44.80471 169.09682 11001 ft 165 kts 38°
2026-05-06 15:23 -44.79764 169.10972 10985 ft 166 kts 38°
2026-05-06 15:23 -44.79056 169.12263 10992 ft 167 kts 38°
2026-05-06 15:23 -44.78339 169.13565 10992 ft 168 kts 38°
2026-05-06 15:24 -44.77622 169.14865 10980 ft 168 kts 38°
2026-05-06 15:24 -44.76906 169.16163 10987 ft 168 kts 38°
2026-05-06 15:24 -44.76194 169.17454 10981 ft 166 kts 38°
2026-05-06 15:24 -44.75489 169.18730 10983 ft 164 kts 37°
2026-05-06 15:25 -44.74782 169.20003 10983 ft 166 kts 38°
2026-05-06 15:25 -44.74071 169.21292 10985 ft 166 kts 38°
2026-05-06 15:25 -44.73362 169.22577 10982 ft 166 kts 38°
2026-05-06 15:25 -44.72650 169.23863 10979 ft 167 kts 38°
2026-05-06 15:26 -44.71942 169.25144 10985 ft 165 kts 38°
2026-05-06 15:26 -44.71237 169.26416 10985 ft 165 kts 37°
2026-05-06 15:26 -44.70534 169.27683 10980 ft 164 kts 37°
2026-05-06 15:26 -44.69833 169.28947 10977 ft 164 kts 37°
2026-05-06 15:27 -44.69134 169.30207 10979 ft 163 kts 37°
2026-05-06 15:27 -44.68434 169.31467 10979 ft 163 kts 37°
2026-05-06 15:27 -44.67731 169.32734 10979 ft 166 kts 37°
2026-05-06 15:27 -44.67017 169.34020 10992 ft 168 kts 38°
2026-05-06 15:28 -44.66289 169.35329 10979 ft 170 kts 38°
2026-05-06 15:28 -44.65574 169.36627 10987 ft 164 kts 38°
2026-05-06 15:28 -44.64881 169.37873 10988 ft 161 kts 37°
2026-05-06 15:28 -44.64187 169.39110 10990 ft 161 kts 37°
2026-05-06 15:29 -44.63489 169.40360 10987 ft 163 kts 38°
2026-05-06 15:29 -44.62801 169.41605 10994 ft 161 kts 37°
2026-05-06 15:29 -44.62099 169.42843 11000 ft 164 kts 37°
2026-05-06 15:29 -44.61397 169.44108 11001 ft 166 kts 37°
2026-05-06 15:30 -44.60690 169.45389 10990 ft 166 kts 37°
2026-05-06 15:30 -44.59980 169.46666 11004 ft 167 kts 37°
2026-05-06 15:30 -44.59257 169.47961 11005 ft 170 kts 37°
2026-05-06 15:30 -44.58546 169.49245 10991 ft 162 kts 37°
2026-05-06 15:31 -44.57870 169.50463 10980 ft 154 kts 36°
2026-05-06 15:31 -44.57217 169.51615 11013 ft 155 kts 36°
2026-05-06 15:31 -44.56518 169.52836 11001 ft 162 kts 36°
2026-05-06 15:32 -44.55137 169.55341 11002 ft 162 kts 37°
2026-05-06 15:32 -44.54448 169.56580 11003 ft 160 kts 36°
2026-05-06 15:32 -44.53759 169.57801 11002 ft 160 kts 37°
2026-05-06 15:32 -44.53062 169.59040 11008 ft 161 kts 36°
2026-05-06 15:33 -44.52366 169.60283 10988 ft 160 kts 34°
2026-05-06 15:33 -44.51683 169.61504 11007 ft 160 kts 35°
2026-05-06 15:33 -44.50988 169.62733 11007 ft 165 kts 36°
2026-05-06 15:33 -44.50279 169.64002 10988 ft 162 kts 37°
2026-05-06 15:34 -44.49602 169.65225 11003 ft 151 kts 34°
2026-05-06 15:34 -44.48959 169.66347 11016 ft 153 kts 34°
2026-05-06 15:34 -44.48281 169.67537 11018 ft 159 kts 35°
2026-05-06 15:34 -44.47599 169.68766 11015 ft 160 kts 36°
2026-05-06 15:35 -44.46902 169.70009 11021 ft 165 kts 37°
2026-05-06 15:35 -44.46177 169.71311 11020 ft 170 kts 38°
2026-05-06 15:35 -44.45579 169.72762 11028 ft 177 kts 47°
2026-05-06 15:35 -44.45006 169.74292 11032 ft 178 kts 45°
2026-05-06 15:36 -44.44406 169.75826 11031 ft 180 kts 46°
2026-05-06 15:36 -44.43798 169.77393 11007 ft 185 kts 46°
2026-05-06 15:36 -44.43187 169.78983 11005 ft 185 kts 46°
2026-05-06 15:36 -44.42594 169.80548 10996 ft 176 kts 45°
2026-05-06 15:37 -44.42012 169.82042 10993 ft 173 kts 44°
2026-05-06 15:37 -44.41448 169.83502 10999 ft 169 kts 44°
2026-05-06 15:37 -44.40887 169.84942 11004 ft 169 kts 44°
2026-05-06 15:37 -44.40320 169.86397 11005 ft 171 kts 44°
2026-05-06 15:38 -44.39750 169.87869 11005 ft 173 kts 45°
2026-05-06 15:38 -44.39178 169.89348 11001 ft 173 kts 45°
2026-05-06 15:38 -44.38603 169.90831 11000 ft 174 kts 44°
2026-05-06 15:38 -44.38027 169.92318 11002 ft 174 kts 44°
2026-05-06 15:39 -44.37449 169.93807 11005 ft 175 kts 44°
2026-05-06 15:39 -44.36870 169.95300 11006 ft 175 kts 44°
2026-05-06 15:39 -44.36287 169.96799 11006 ft 177 kts 45°
2026-05-06 15:39 -44.35700 169.98311 11005 ft 177 kts 45°
2026-05-06 15:40 -44.35113 169.99825 11003 ft 177 kts 45°
2026-05-06 15:40 -44.34526 170.01336 11002 ft 177 kts 45°
2026-05-06 15:40 -44.33940 170.02842 11002 ft 176 kts 45°
2026-05-06 15:40 -44.33354 170.04347 11006 ft 176 kts 45°
2026-05-06 15:41 -44.32767 170.05852 11004 ft 176 kts 45°
2026-05-06 15:41 -44.32180 170.07357 11004 ft 177 kts 45°
2026-05-06 15:41 -44.31586 170.08878 11006 ft 179 kts 45°
2026-05-06 15:41 -44.30992 170.10406 11009 ft 180 kts 45°
2026-05-06 15:42 -44.30389 170.11948 11009 ft 182 kts 45°
2026-05-06 15:42 -44.29787 170.13491 11003 ft 180 kts 45°
2026-05-06 15:42 -44.29192 170.15020 11002 ft 179 kts 45°
2026-05-06 15:42 -44.28599 170.16536 10995 ft 178 kts 45°
2026-05-06 15:43 -44.28006 170.18048 10995 ft 177 kts 45°
2026-05-06 15:43 -44.27415 170.19556 11001 ft 177 kts 45°
2026-05-06 15:43 -44.26824 170.21062 11001 ft 177 kts 45°
2026-05-06 15:43 -44.26232 170.22571 11005 ft 177 kts 45°
2026-05-06 15:44 -44.25640 170.24081 11005 ft 177 kts 45°
2026-05-06 15:44 -44.25049 170.25588 11005 ft 177 kts 45°
2026-05-06 15:44 -44.24457 170.27096 11005 ft 177 kts 45°
2026-05-06 15:44 -44.23863 170.28606 10988 ft 178 kts 45°
2026-05-06 15:45 -44.23262 170.30131 11010 ft 181 kts 46°
2026-05-06 15:45 -44.22654 170.31681 11002 ft 182 kts 46°
2026-05-06 15:45 -44.22053 170.33221 11001 ft 180 kts 46°
2026-05-06 15:45 -44.21452 170.34748 10999 ft 179 kts 46°
2026-05-06 15:46 -44.20852 170.36267 10993 ft 179 kts 46°
2026-05-06 15:46 -44.20251 170.37789 10999 ft 179 kts 46°
2026-05-06 15:46 -44.19651 170.39310 10998 ft 179 kts 46°
2026-05-06 15:46 -44.19051 170.40831 10993 ft 179 kts 46°
2026-05-06 15:47 -44.18452 170.42352 10996 ft 179 kts 46°
2026-05-06 15:47 -44.17860 170.43849 10997 ft 179 kts 46°
2026-05-06 15:47 -44.17259 170.45367 10996 ft 179 kts 46°
2026-05-06 15:47 -44.16658 170.46888 10997 ft 179 kts 46°
2026-05-06 15:48 -44.16057 170.48408 10991 ft 179 kts 46°
2026-05-06 15:48 -44.15456 170.49928 10999 ft 179 kts 46°
2026-05-06 15:48 -44.14853 170.51450 10995 ft 180 kts 46°
2026-05-06 15:48 -44.14250 170.52972 10996 ft 180 kts 46°
2026-05-06 15:49 -44.13645 170.54498 10996 ft 181 kts 46°
2026-05-06 15:49 -44.13036 170.56034 10986 ft 181 kts 46°
2026-05-06 15:49 -44.12428 170.57564 10998 ft 181 kts 46°
2026-05-06 15:49 -44.11822 170.59095 11001 ft 180 kts 47°
2026-05-06 15:50 -44.11212 170.60633 10998 ft 182 kts 46°
2026-05-06 15:50 -44.10596 170.62177 10994 ft 183 kts 47°
2026-05-06 15:50 -44.09984 170.63722 10994 ft 182 kts 47°
2026-05-06 15:50 -44.09373 170.65257 10992 ft 181 kts 47°
2026-05-06 15:51 -44.08762 170.66791 10995 ft 182 kts 47°
2026-05-06 15:51 -44.08146 170.68335 10989 ft 182 kts 47°
2026-05-06 15:51 -44.07529 170.69876 10988 ft 183 kts 47°
2026-05-06 15:51 -44.06911 170.71426 10996 ft 184 kts 47°
2026-05-06 15:52 -44.06292 170.72985 10991 ft 184 kts 47°
2026-05-06 15:52 -44.05677 170.74533 10989 ft 183 kts 47°
2026-05-06 15:52 -44.05056 170.76082 10986 ft 183 kts 47°
2026-05-06 15:52 -44.04439 170.77627 10986 ft 183 kts 47°
2026-05-06 15:53 -44.03821 170.79171 10984 ft 183 kts 47°
2026-05-06 15:53 -44.03204 170.80713 10985 ft 182 kts 47°
2026-05-06 15:53 -44.02587 170.82254 10984 ft 183 kts 47°
2026-05-06 15:53 -44.01967 170.83800 10983 ft 183 kts 47°
2026-05-06 15:54 -44.01347 170.85348 10979 ft 184 kts 47°
2026-05-06 15:54 -44.00725 170.86900 10986 ft 184 kts 47°
2026-05-06 15:54 -44.00100 170.88456 10983 ft 185 kts 47°
2026-05-06 15:54 -43.99475 170.90012 10985 ft 185 kts 47°
2026-05-06 15:55 -43.98846 170.91576 10991 ft 186 kts 48°
2026-05-06 15:55 -43.98212 170.93153 10986 ft 188 kts 47°
2026-05-06 15:55 -43.97578 170.94739 10987 ft 188 kts 48°
2026-05-06 15:55 -43.96940 170.96325 10996 ft 188 kts 49°
2026-05-06 15:56 -43.96301 170.97917 10982 ft 189 kts 48°
2026-05-06 15:56 -43.95664 170.99502 10981 ft 187 kts 48°
2026-05-06 15:56 -43.95460 171.00013 10985 ft 186 kts 47°
2026-05-06 15:56 -43.94727 171.01825 10982 ft 186 kts 47°
2026-05-06 15:57 -43.94088 171.03402 10982 ft 188 kts 47°
2026-05-06 15:57 -43.93454 171.04979 10989 ft 187 kts 47°
2026-05-06 15:57 -43.92813 171.06562 10979 ft 189 kts 47°
2026-05-06 15:57 -43.92172 171.08147 10987 ft 189 kts 47°
2026-05-06 15:58 -43.91538 171.09718 10986 ft 189 kts 48°
2026-05-06 15:58 -43.90898 171.11307 10981 ft 188 kts 47°
2026-05-06 15:58 -43.90267 171.12875 10982 ft 184 kts 47°
2026-05-06 15:58 -43.89631 171.14433 10988 ft 188 kts 47°
2026-05-06 15:59 -43.88985 171.16021 10980 ft 189 kts 47°
2026-05-06 15:59 -43.88346 171.17604 10983 ft 187 kts 47°
2026-05-06 15:59 -43.87712 171.19168 10986 ft 185 kts 47°
2026-05-06 15:59 -43.87289 171.20214 10985 ft 184 kts 47°
2026-05-06 16:00 -43.86448 171.22271 10988 ft 188 kts 47°
2026-05-06 16:00 -43.86015 171.23341 10979 ft 189 kts 48°
2026-05-06 16:00 -43.85604 171.24371 10984 ft 180 kts 47°
2026-05-06 16:00 -43.85099 171.25608 10993 ft 180 kts 46°
2026-05-06 16:01 -43.84474 171.27124 10994 ft 182 kts 47°
2026-05-06 16:01 -43.83853 171.28656 10986 ft 183 kts 47°
2026-05-06 16:01 -43.83226 171.30201 10991 ft 184 kts 47°
2026-05-06 16:01 -43.82599 171.31741 10983 ft 184 kts 47°
2026-05-06 16:02 -43.81970 171.33284 10984 ft 184 kts 48°
2026-05-06 16:02 -43.81342 171.34825 10983 ft 184 kts 48°
2026-05-06 16:02 -43.80713 171.36366 10974 ft 184 kts 48°
2026-05-06 16:02 -43.80082 171.37913 10978 ft 185 kts 48°
2026-05-06 16:03 -43.79450 171.39460 10979 ft 185 kts 48°
2026-05-06 16:03 -43.78819 171.41009 10973 ft 185 kts 49°
2026-05-06 16:03 -43.78176 171.42575 10854 ft 190 kts 49°
2026-05-06 16:03 -43.77517 171.44183 10690 ft 195 kts 49°
2026-05-06 16:04 -43.76846 171.45827 10519 ft 198 kts 50°
2026-05-06 16:04 -43.76169 171.47491 10342 ft 199 kts 49°
2026-05-06 16:04 -43.75485 171.49159 10165 ft 200 kts 50°
2026-05-06 16:04 -43.74801 171.50832 9989 ft 200 kts 49°
2026-05-06 16:05 -43.74115 171.52510 9805 ft 201 kts 49°
2026-05-06 16:05 -43.73424 171.54190 9613 ft 201 kts 49°
2026-05-06 16:05 -43.72734 171.55871 9437 ft 201 kts 50°
2026-05-06 16:05 -43.72048 171.57550 9260 ft 201 kts 50°
2026-05-06 16:06 -43.71357 171.59230 9080 ft 201 kts 50°
2026-05-06 16:06 -43.70664 171.60913 8902 ft 201 kts 50°
2026-05-06 16:06 -43.70023 171.62635 8725 ft 205 kts 60°
2026-05-06 16:06 -43.69737 171.64614 8546 ft 216 kts 78°
2026-05-06 16:07 -43.69812 171.66718 8359 ft 220 kts 87°
2026-05-06 16:07 -43.69916 171.68827 8176 ft 220 kts 85°
2026-05-06 16:07 -43.69996 171.70940 7975 ft 221 kts 86°
2026-05-06 16:07 -43.70086 171.73056 7782 ft 221 kts 86°
2026-05-06 16:08 -43.70181 171.75180 7588 ft 221 kts 86°
2026-05-06 16:08 -43.70272 171.77297 7395 ft 221 kts 86°
2026-05-06 16:08 -43.70363 171.79426 7200 ft 222 kts 86°
2026-05-06 16:08 -43.70454 171.81555 7005 ft 223 kts 86°
2026-05-06 16:09 -43.70547 171.83699 6811 ft 224 kts 86°
2026-05-06 16:09 -43.70639 171.85856 6611 ft 225 kts 86°
2026-05-06 16:09 -43.70727 171.87985 6416 ft 225 kts 86°
2026-05-06 16:09 -43.70818 171.90150 6210 ft 225 kts 86°
2026-05-06 16:10 -43.70910 171.92340 5997 ft 225 kts 87°
2026-05-06 16:10 -43.71002 171.94460 5804 ft 224 kts 88°
2026-05-06 16:10 -43.71091 171.96582 5598 ft 212 kts 88°
2026-05-06 16:10 -43.71179 171.98539 5413 ft 197 kts 88°
2026-05-06 16:11 -43.71255 172.00377 5233 ft 186 kts 86°
2026-05-06 16:11 -43.71261 172.02105 5071 ft 173 kts 73°
2026-05-06 16:11 -43.70960 172.03656 4932 ft 165 kts 65°
2026-05-06 16:11 -43.70661 172.05196 4769 ft 165 kts 69°
2026-05-06 16:12 -43.70374 172.06721 4592 ft 164 kts 67°
2026-05-06 16:12 -43.70086 172.08226 4452 ft 161 kts 68°
2026-05-06 16:12 -43.69800 172.09716 4305 ft 161 kts 68°
2026-05-06 16:12 -43.69521 172.11205 4162 ft 160 kts 68°
2026-05-06 16:13 -43.69232 172.12685 4033 ft 161 kts 67°
2026-05-06 16:13 -43.68947 172.14172 3879 ft 160 kts 68°
2026-05-06 16:13 -43.68713 172.15399 3768 ft 156 kts 68°
2026-05-06 16:13 -43.68428 172.16857 3644 ft 164 kts 67°
2026-05-06 16:14 -43.68128 172.18436 3492 ft 174 kts 71°
2026-05-06 16:14 -43.67798 172.20051 3337 ft 175 kts 65°
2026-05-06 16:14 -43.67367 172.21634 3191 ft 178 kts 64°
2026-05-06 16:14 -43.66950 172.23228 3044 ft 175 kts 63°
2026-05-06 16:15 -43.66534 172.24801 2890 ft 175 kts 64°
2026-05-06 16:15 -43.66125 172.26383 2754 ft 176 kts 63°
2026-05-06 16:15 -43.65701 172.27959 2605 ft 176 kts 63°
2026-05-06 16:15 -43.65290 172.29530 2463 ft 175 kts 64°
2026-05-06 16:16 -43.64901 172.31086 2291 ft 163 kts 65°
2026-05-06 16:16 -43.64554 172.32514 2145 ft 158 kts 66°
2026-05-06 16:16 -43.64219 172.33913 1987 ft 147 kts 64°
2026-05-06 16:16 -43.63867 172.35173 1976 ft 134 kts 52°
2026-05-06 16:17 -43.63388 172.36186 1988 ft 116 kts 38°
2026-05-06 16:17 -43.62809 172.36929 1971 ft 111 kts 36°
2026-05-06 16:17 -43.62270 172.37620 1979 ft 100 kts 34°
2026-05-06 16:17 -43.61770 172.38218 1975 ft 94 kts 32°
2026-05-06 16:18 -43.61271 172.38790 1980 ft 95 kts 32°
2026-05-06 16:18 -43.60778 172.39369 1988 ft 96 kts 27°
2026-05-06 16:18 -43.60233 172.39989 2011 ft 99 kts 35°
2026-05-06 16:18 -43.59776 172.40569 2003 ft 81 kts 31°
2026-05-06 16:19 -43.59292 172.41105 2009 ft 94 kts 29°
2026-05-06 16:19 -43.58777 172.41702 2010 ft 93 kts 33°
2026-05-06 16:19 -43.58321 172.42232 2021 ft 84 kts 32°
2026-05-06 16:19 -43.57861 172.42789 2008 ft 89 kts 32°
2026-05-06 16:20 -43.57410 172.43334 1999 ft 82 kts 30°
2026-05-06 16:20 -43.56968 172.43841 1992 ft 85 kts 30°
2026-05-06 16:20 -43.56471 172.44421 1872 ft 101 kts 36°
2026-05-06 16:20 -43.55929 172.45070 1732 ft 104 kts 35°
2026-05-06 16:21 -43.55379 172.45681 1589 ft 102 kts 33°
2026-05-06 16:21 -43.54861 172.46302 1420 ft 95 kts 37°
2026-05-06 16:21 -43.54376 172.46896 1288 ft 91 kts 34°
2026-05-06 16:21 -43.53895 172.47432 1222 ft 90 kts 31°
2026-05-06 16:22 -43.53386 172.47975 1081 ft 92 kts 39°
2026-05-06 16:22 -43.52909 172.48562 946 ft 92 kts 38°
2026-05-06 16:22 -43.52434 172.49125 837 ft 90 kts 36°
2026-05-06 16:22 -43.51949 172.49667 735 ft 91 kts 35°
2026-05-06 16:23 -43.51471 172.50248 598 ft 91 kts 37°
2026-05-06 16:23 -43.50992 172.50801 480 ft 88 kts 36°
2026-05-06 16:23 -43.50546 172.51294 361 ft 78 kts 36°
2026-05-06 16:23 -43.50130 172.51786 256 ft 79 kts 35°
2026-05-06 16:24 -43.49721 172.52246 141 ft 71 kts 37°
2026-05-06 16:24 -43.49410 172.52610 122 ft 43 kts 40°
2026-05-06 16:24 -43.49179 172.52877 115 ft 49 kts 39°
2026-05-06 16:24 -43.48911 172.53186 111 ft 43 kts 40°
2026-05-06 16:25 -43.48801 172.53328 115 ft 16 kts 69°
2026-05-06 16:25 -43.48861 172.53469 112 ft 13 kts 130°
2026-05-06 16:25 -43.48911 172.53550 114 ft 14 kts 129°
2026-05-06 16:25 -43.48994 172.53682 112 ft 22 kts 127°
2026-05-06 16:26 -43.49098 172.53847 110 ft 22 kts 134°
2026-05-06 16:26 -43.49180 172.53980 105 ft 14 kts 127°
2026-05-06 16:26 -43.49242 172.54084 103 ft 16 kts 130°
2026-05-06 16:26 -43.49349 172.54127 101 ft 19 kts 187°
2026-05-06 16:27 -43.49469 172.54019 97 ft 23 kts 219°
2026-05-06 16:27 -43.49601 172.53880 99 ft 21 kts 219°
2026-05-06 16:27 -43.49621 172.53810 100 ft 1 kts 310°
2026-05-06 16:27 -43.49612 172.53794 101 ft 2 kts 309°
2026-05-06 16:28 -43.49606 172.53783 101 ft 0 kts 306°